Regional Weather Roundup
Issued by NWS Cleveland, OH

Home | Current Version | Previous Version | Graphics & Text | Print | Product List | Glossary On
Versions: 1 2 3 4 5 6 7 8 9 10 11 12 13 14 15 16 17 18 19 20 21 22 23 24 25 26 27 28 29 30 31 32 33 34 35 36 37 38 39 40 41 42 43 44 45 46 47 48 49 50
000
ASUS41 KCLE 162100
RWRCLE
OHIO REGIONAL WEATHER ROUNDUP
NATIONAL WEATHER SERVICE WILMINGTON, OH
500 PM EDT TUE SEP 16 2014

NOTE: "FAIR" INDICATES FEW OR NO CLOUDS BELOW 12,000 FEET WITH NO
SIGNIFICANT WEATHER AND/OR OBSTRUCTIONS TO VISIBILITY.

OHZ001>008-015>018-024>027-034-035-043-044-162200-
   NORTHWEST OHIO

CITY           SKY/WX    TMP DP  RH WIND       PRES   REMARKS
DEFIANCE       SUNNY     67  44  43 VRB5      30.11F
FINDLAY        MOSUNNY   65  46  50 W7        30.09F
TOLEDO EXPRESS SUNNY     65  44  46 S7        30.09F
TOLEDO METCALF SUNNY     66  45  46 NW8       30.10F
LIMA           CLOUDY    63  48  58 CALM      30.12S
$$

OHZ009>014-019>023-028>033-038-089-162200-
   NORTHEAST OHIO

CITY           SKY/WX    TMP DP  RH WIND       PRES   REMARKS
CLE-HOPKINS    MOSUNNY   62  50  64 N10       30.11F
CLE-LAKEFRONT  MOSUNNY   63  50  62 NW7       30.09F
CUY CO. ARPT   NOT AVBL
LORAIN-ELYRIA  NOT AVBL
ASHTABULA      SUNNY     63  47  55 N7        30.10S
AKRON-CANTON   MOSUNNY   66  48  52 NW7       30.08S
WOOSTER        NOT AVBL
MANSFIELD      MOSUNNY   66  48  52 NW8       30.09F
YOUNGSTOWN     MOSUNNY   64  49  57 NW7       30.08S
$$

OHZ042-051>053-060>062-070>072-077>081-162200-
  SOUTHWEST OHIO

CITY           SKY/WX    TMP DP  RH WIND       PRES   REMARKS
CINC-COVINGTON CLOUDY    61  50  67 N7        30.13S
CINC-LUNKEN    CLOUDY    62  52  69 NE5       30.13F
HAMILTON       CLOUDY    62  52  69 NW3       30.14F
DAYTON         NOT AVBL
WRIGHT-PAT AFB CLOUDY    61  49  65 VRB2      30.12F
DAYTON GENERAL CLOUDY    60  50  69 NE3       30.13S
WILMINGTON     CLOUDY    60  49  66 CALM      30.12F
$$

OHZ036-037-039>041-045>050-054>059-063>069-073>076-082>088-162200-
  CENTRAL AND SOUTHEAST OHIO

CITY           SKY/WX    TMP DP  RH WIND       PRES   REMARKS
COLUMBUS       PTSUNNY   65  49  56 CALM      30.10F
OSU AIRPORT    CLOUDY    62  48  60 E3        30.11F
BOLTON FIELD   CLOUDY    63  52  67 SW7       30.12F
RICKENBACK AFB NOT AVBL
NEWARK         SUNNY     65  51  60 VRB3      30.09F
MARION         CLOUDY    66  50  56 N5        30.11F
LANCASTER      PTSUNNY   64  49  57 VRB3      30.11F
ZANESVILLE     SUNNY     68  48  48 N5        30.09F
NEW PHILLY     SUNNY     65  54  67 CALM      30.08F
$$


USA.gov is the U.S. government's official web portal to all federal, state and local government web resources and services.